Location: Dreilärchen
(47.9312°N, 8.6113°E)
Time: 20:53:28
(UTC+00:00)

Cosmos 2298 Rocket - Pass Details

Date: 26 May 2022
Orbit: 775 x 784 km, 74.0° (Epoch: 03 July)

Event Time Altitude Azimuth Distance (km) Brightness Sun altitude
Exits shadow 00:07:44 42° 183° (S) 1,097 4.3 -20.2°
Maximum altitude 00:09:31 74° 110° (ESE) 812 4.0 -20.2°
Drops below altitude 10° 00:14:49 10° 26° (NNE) 2,339 7.6 -20.0°
Sets 00:17:13 0° 25° (NNE) 3,272 8.8 -19.9°
